Weather History for KHHF - April, 2013

Change the Weather History Date:

Sunday, April 14, 2013

  Actual Average (KPPA) Record (KPPA)
Temperature  
Mean Temperature 67 °F -  
Max Temperature 77 °F 68 °F 90 °F (1978)
Min Temperature 57 °F 39 °F 27 °F (1983)
Cooling Degree Days 2    
Growing Degree Days 17 (Base 50)    
Moisture  
Dew Point 40 °F    
Average Humidity 41    
Maximum Humidity 80    
Minimum Humidity 19    
Precipitation  
Precipitation 0.00 in - - ()
Sea Level Pressure  
Sea Level Pressure 29.53 in    
Wind  
Wind Speed 20 mph (East)    
Max Wind Speed 29 mph    
Max Gust Speed 38 mph    
Visibility 10 miles    
Events      
Averages and records for this station are not official NWS values.
T = Trace of Precipitation, MM = Missing Value Source: NWS Daily Summary

Daily Weather History Graph

Daily Weather History Graph

Search for Another Location

Airport or City:

Trip Planner

Search our weather history database for the weather conditions in past years. The results will help you decide how hot, cold, wet, or windy it might be!

Date:

Astronomy

Apr. 14, 2013 Rise Set
Actual Time 7:09 AM CDT 8:14 PM CDT
Civil Twilight 6:43 AM CDT 8:40 PM CDT
Nautical Twilight 6:12 AM CDT 9:12 PM CDT
Astronomical Twilight 5:39 AM CDT 9:44 PM CDT
Moon 9:53 AM CDT (4/14) No Moon Set
Length of Visible Light 13h 57m
Length of Day
13h 04m
Waxing Crescent, 17% of the Moon is Illuminated
Apr 14
Waxing Crescent
Apr 18
First Quarter
Apr 25
Full
May 2
Last Quarter
May 9
New

Hourly Weather History & Observations

Time (CDT) Temp. Dew Point Humidity Pressure Visibility Wind Dir Wind Speed Gust Speed Precip Events Conditions
12:15 AM 62.6 °F 41.5 °F 46% 29.55 in 10.0 mi South 26.5 mph 34.5 mph N/A   Clear
12:35 AM 62.8 °F 41.2 °F 45% 29.55 in 10.0 mi South 28.8 mph 36.8 mph N/A   Clear
12:55 AM 62.6 °F 41.2 °F 45% 29.55 in 10.0 mi South 25.3 mph 38.0 mph N/A   Clear
1:15 AM 61.9 °F 41.4 °F 47% 29.56 in 10.0 mi South 24.2 mph 34.5 mph N/A   Clear
1:35 AM 61.7 °F 41.9 °F 48% 29.55 in 10.0 mi South 25.3 mph 34.5 mph N/A   Clear
1:55 AM 61.3 °F 42.1 °F 49% 29.54 in 10.0 mi South 28.8 mph 34.5 mph N/A   Clear
2:15 AM 61.2 °F 42.3 °F 50% 29.54 in 10.0 mi South 25.3 mph 35.7 mph N/A   Clear
2:35 AM 60.8 °F 42.8 °F 52% 29.53 in 10.0 mi South 26.5 mph 32.2 mph N/A   Clear
2:55 AM 60.4 °F 42.8 °F 52% 29.52 in 10.0 mi South 24.2 mph 34.5 mph N/A   Clear
3:15 AM 60.1 °F 42.8 °F 53% 29.51 in 10.0 mi South 25.3 mph 35.7 mph N/A   Clear
3:35 AM 60.1 °F 43.2 °F 54% 29.50 in 10.0 mi South 26.5 mph 34.5 mph N/A   Clear
3:55 AM 60.3 °F 43.7 °F 54% 29.49 in 10.0 mi South 26.5 mph 33.4 mph N/A   Clear
4:15 AM 60.8 °F 44.2 °F 54% 29.47 in 10.0 mi South 26.5 mph 35.7 mph N/A   Clear
4:35 AM 60.8 °F 45.5 °F 57% 29.47 in 10.0 mi South 26.5 mph 36.8 mph N/A   Clear
4:55 AM 60.8 °F 46.0 °F 58% 29.47 in 10.0 mi South 26.5 mph 34.5 mph N/A   Clear
5:15 AM 60.3 °F 46.8 °F 61% 29.46 in 10.0 mi South 24.2 mph 36.8 mph N/A   Clear
5:35 AM 59.9 °F 47.7 °F 64% 29.47 in 10.0 mi SSW 23.0 mph 33.4 mph N/A   Clear
5:55 AM 59.4 °F 48.9 °F 68% 29.47 in 10.0 mi SSW 21.9 mph 29.9 mph N/A   Clear
6:15 AM 59.2 °F 49.6 °F 71% 29.46 in 10.0 mi SSW 23.0 mph 31.1 mph N/A   Clear
6:35 AM 58.6 °F 50.0 °F 73% 29.46 in 10.0 mi SSW 23.0 mph 31.1 mph N/A   Clear
6:55 AM 58.1 °F 50.0 °F 74% 29.45 in 10.0 mi South 21.9 mph 26.5 mph N/A   Clear
7:15 AM 57.7 °F 50.5 °F 77% 29.47 in 10.0 mi SW 13.8 mph 24.2 mph N/A   Clear
7:35 AM 57.4 °F 50.9 °F 79% 29.47 in 10.0 mi SSW 13.8 mph 20.7 mph N/A   Clear
7:55 AM 57.4 °F 51.3 °F 80% 29.47 in 10.0 mi SSW 17.3 mph 24.2 mph N/A   Clear
8:15 AM 59.2 °F 51.8 °F 77% 29.47 in 10.0 mi SSW 18.4 mph 23.0 mph N/A   Clear
8:35 AM 61.2 °F 51.8 °F 71% 29.46 in 10.0 mi SSW 21.9 mph 27.6 mph N/A   Clear
8:55 AM 62.8 °F 51.4 °F 66% 29.47 in 10.0 mi SW 18.4 mph 26.5 mph N/A   Clear
9:15 AM 64.6 °F 50.7 °F 61% 29.47 in 10.0 mi SW 16.1 mph 21.9 mph N/A   Clear
9:35 AM 67.3 °F 48.2 °F 50% 29.47 in 10.0 mi SW 16.1 mph 23.0 mph N/A   Clear
9:55 AM 68.5 °F 46.8 °F 46% 29.48 in 10.0 mi WSW 15.0 mph 19.6 mph N/A   Clear
10:15 AM 70.5 °F 42.6 °F 36% 29.48 in 10.0 mi West 21.9 mph 28.8 mph N/A   Clear
10:35 AM 70.2 °F 43.0 °F 37% 29.49 in 10.0 mi WNW 19.6 mph 26.5 mph N/A   Clear
10:55 AM 70.9 °F 43.2 °F 37% 29.50 in 10.0 mi WNW 18.4 mph 25.3 mph N/A   Clear
11:15 AM 70.3 °F 43.7 °F 38% 29.51 in 10.0 mi NW 17.3 mph 21.9 mph N/A   Clear
11:35 AM 70.2 °F 43.5 °F 38% 29.51 in 10.0 mi WNW 15.0 mph 19.6 mph N/A   Clear
11:55 AM 70.9 °F 45.9 °F 41% 29.51 in 10.0 mi NW 12.7 mph 16.1 mph N/A   Clear
12:15 PM 70.9 °F 48.2 °F 44% 29.53 in 10.0 mi NNW 12.7 mph 21.9 mph N/A   Clear
12:35 PM 70.9 °F 45.9 °F 41% 29.53 in 10.0 mi NNW 13.8 mph 20.7 mph N/A   Clear
12:55 PM 71.1 °F 43.7 °F 37% 29.53 in 10.0 mi North 13.8 mph 20.7 mph N/A   Clear
1:15 PM 72.1 °F 41.7 °F 33% 29.53 in 10.0 mi North 12.7 mph 20.7 mph N/A   Clear
1:35 PM 72.5 °F 39.4 °F 30% 29.54 in 10.0 mi North 5.8 mph - N/A   Clear
1:55 PM 73.0 °F 38.7 °F 29% 29.54 in 10.0 mi North 12.7 mph 19.6 mph N/A   Clear
2:15 PM 74.3 °F 38.3 °F 27% 29.54 in 10.0 mi NNE 10.4 mph 19.6 mph N/A   Clear
2:35 PM 75.0 °F 36.9 °F 25% 29.54 in 10.0 mi NNW 9.2 mph 16.1 mph N/A   Clear
2:55 PM 75.2 °F 36.1 °F 24% 29.54 in 10.0 mi NW 4.6 mph - N/A   Clear
3:15 PM 75.9 °F 35.6 °F 23% 29.54 in 10.0 mi North 11.5 mph - N/A   Clear
3:35 PM 76.6 °F 34.7 °F 22% 29.54 in 10.0 mi North 9.2 mph 16.1 mph N/A   Clear
3:55 PM 76.5 °F 32.7 °F 20% 29.52 in 10.0 mi North 5.8 mph - N/A   Clear
4:15 PM 77.4 °F 32.4 °F 19% 29.51 in 10.0 mi North 8.1 mph - N/A   Clear
4:35 PM 77.0 °F 35.1 °F 22% 29.51 in 10.0 mi ENE 11.5 mph 17.3 mph N/A   Clear
4:55 PM 77.4 °F 36.0 °F 22% 29.51 in 10.0 mi NE 10.4 mph 16.1 mph N/A   Clear
5:15 PM 77.5 °F 36.9 °F 23% 29.51 in 10.0 mi NE 12.7 mph 19.6 mph N/A   Clear
5:35 PM 77.2 °F 35.8 °F 22% 29.51 in 10.0 mi ENE 10.4 mph 19.6 mph N/A   Clear
5:55 PM 77.4 °F 37.4 °F 24% 29.50 in 10.0 mi NE 13.8 mph 21.9 mph N/A   Clear
6:15 PM 76.3 °F 38.3 °F 25% 29.51 in 10.0 mi NE 13.8 mph 19.6 mph N/A   Clear
6:35 PM 75.6 °F 38.3 °F 26% 29.51 in 10.0 mi ENE 12.7 mph 17.3 mph N/A   Clear
6:55 PM 75.2 °F 38.5 °F 27% 29.53 in 10.0 mi ENE 13.8 mph - N/A   Clear
7:15 PM 73.4 °F 39.2 °F 29% 29.54 in 10.0 mi ENE 15.0 mph 19.6 mph N/A   Clear
7:35 PM 72.5 °F 39.4 °F 30% 29.54 in 10.0 mi ENE 12.7 mph 20.7 mph N/A   Clear
7:55 PM 71.1 °F 39.2 °F 31% 29.55 in 10.0 mi ENE 13.8 mph 17.3 mph N/A   Clear
8:15 PM 70.0 °F 39.0 °F 32% 29.56 in 10.0 mi ENE 13.8 mph 17.3 mph N/A   Clear
8:35 PM 68.4 °F 38.1 °F 33% 29.58 in 10.0 mi ENE 12.7 mph 17.3 mph N/A   Clear
8:55 PM 67.5 °F 36.7 °F 32% 29.59 in 10.0 mi NE 16.1 mph 19.6 mph N/A   Clear
9:15 PM 66.0 °F 32.0 °F 28% 29.60 in 10.0 mi NE 15.0 mph 21.9 mph N/A   Clear
9:35 PM 65.3 °F 29.5 °F 26% 29.63 in 10.0 mi NE 16.1 mph 24.2 mph N/A   Clear
9:55 PM 63.0 °F 23.7 °F 22% 29.65 in 10.0 mi NE 16.1 mph 26.5 mph N/A   Clear
10:15 PM 62.1 °F 22.6 °F 22% 29.65 in 10.0 mi ENE 18.4 mph 25.3 mph N/A   Clear
10:35 PM 61.2 °F 22.8 °F 23% 29.65 in 10.0 mi ENE 13.8 mph 21.9 mph N/A   Clear
10:55 PM 60.6 °F 23.2 °F 24% 29.67 in 10.0 mi ENE 12.7 mph 25.3 mph N/A   Clear
11:15 PM 59.4 °F 23.5 °F 25% 29.68 in 10.0 mi NE 16.1 mph 25.3 mph N/A   Clear
11:35 PM 58.3 °F 22.8 °F 25% 29.68 in 10.0 mi ENE 18.4 mph 23.0 mph N/A   Clear
11:55 PM 57.6 °F 21.0 °F 24% 29.69 in 10.0 mi ENE 13.8 mph 20.7 mph N/A   Clear